Location: Unspecified
(51.5147°N, 7.4673°E)
Time: 18:33:55
(UTC+01:00)

A-11 Canister half - Visible Passes

Search period start: 18 February 2026 00:00
Search period end: 28 February 2026 00:00
Orbit: 1512 x 1687 km, 47.2° (Epoch: 18 February)

Date Brightness Start Highest point End Pass type
(mag) Time Alt. Az. Time Alt. Az. Time Alt. Az.
18 Feb 10.4 04:19:42 19° S 04:19:42 19° S 04:22:23 10° SSE visible
18 Feb 10.2 19:29:33 10° S 19:36:06 20° SE 19:37:43 19° ESE visible
18 Feb 9.8 21:29:45 10° SW 21:35:58 37° SSW 21:35:58 37° SSW visible
18 Feb 11.0 23:33:31 10° WSW 23:34:13 13° WSW 23:34:13 13° WSW visible
19 Feb 10.7 03:58:37 13° SSE 03:58:37 13° SSE 03:59:37 10° SSE visible
19 Feb 10.3 19:06:59 10° SSE 19:13:10 18° SE 19:16:35 15° ESE visible
19 Feb 9.5 21:06:48 10° SW 21:14:49 43° S 21:14:49 43° S visible
19 Feb 10.6 23:10:27 10° WSW 23:13:02 21° WSW 23:13:02 21° WSW visible
20 Feb 10.4 18:44:26 10° SSE 18:50:14 17° SE 18:55:22 11° E visible
20 Feb 9.4 20:43:51 10° SW 20:53:14 44° SSE 20:53:35 44° SE visible
20 Feb 10.2 22:47:23 10° WSW 22:51:49 30° WSW 22:51:49 30° WSW visible
21 Feb 10.5 18:21:58 10° SSE 18:27:19 16° SE 18:32:38 10° E visible
21 Feb 9.4 20:20:56 10° SSW 20:30:13 43° SSE 20:32:17 39° ESE visible
21 Feb 9.7 22:24:20 10° WSW 22:30:31 42° SW 22:30:31 42° SW visible
22 Feb 9.5 19:58:00 10° SSW 20:07:13 41° SE 20:10:55 31° ESE visible
22 Feb 9.3 22:01:17 10° WSW 22:09:08 55° SW 22:09:08 55° SW visible
23 Feb 10.9 00:05:57 10° W 00:07:21 15° W 00:07:21 15° W visible
23 Feb 9.6 19:35:07 10° SSW 19:44:13 39° SE 19:49:28 24° E visible
23 Feb 9.1 21:38:14 10° WSW 21:47:40 65° S 21:47:40 65° S visible
23 Feb 10.6 23:42:51 10° W 23:45:53 23° W 23:45:53 23° W visible
24 Feb 9.7 19:12:14 10° SSW 19:21:14 38° SE 19:27:57 18° E visible
24 Feb 9.0 21:15:12 10° WSW 21:25:12 65° SSE 21:26:09 62° SE visible
24 Feb 10.2 23:19:47 10° W 23:24:22 31° W 23:24:22 31° W visible
25 Feb 9.8 18:49:21 10° SSW 18:58:14 36° SE 19:06:23 12° E visible
25 Feb 9.1 20:52:09 10° WSW 21:02:09 64° SSE 21:04:35 51° ESE visible
25 Feb 9.8 22:56:43 10° W 23:02:47 41° WSW 23:02:47 41° WSW visible
26 Feb 9.9 18:26:30 10° SSW 18:35:14 34° SE 18:43:57 10° E visible
26 Feb 9.2 20:29:07 10° WSW 20:39:06 62° SSE 20:42:57 40° ESE visible
26 Feb 9.4 22:33:38 10° W 22:41:09 53° WSW 22:41:09 53° WSW visible
27 Feb 11.0 00:38:31 10° W 00:39:21 13° W 00:39:21 13° W visible
27 Feb 9.2 20:06:07 10° WSW 20:16:04 61° SSE 20:21:17 31° E visible
27 Feb 9.1 22:10:33 10° W 22:19:29 65° SW 22:19:29 65° SW visible
